NOAA 18

Last updated on Tue Jan 14 2025 00:02:17 GMT+0000 (Coordinated Universal Time)

1 28654U 05018A 25013.53469241 .00000315 00000+0 19087-3 0 9990 2 28654 98.8570 94.6036 0014300 183.2497 176.8584 14.13485266 12893
UTC large
Height (km)
Speed (km/s)
/
Latitude / Longitude
Inclination (degrees)
Orbital Period (minutes)
Azimuth
Elevation
Range (km)
Doppler Factor

Next 0 passes for location: London (51.5072 / 0.1276)

Sorry there are no passes over London.